FENGYUN 1C DEB

Satellite information

Favourite Embed

Satellite Type and Status

DEBRISIN ORBIT

Key statistics

Satellite FENGYUN 1C DEB at a glance.

Uptime

9497

Days in orbit

Revolutions

≈ 14.2

Per day

Orbit

SSO

Sun Synchronous Orbit

Inclination

98.7

Latest

Satellite identification and parameters

Extended collection of information and parameters for FENGYUN 1C DEB.

Object identification

Identified? True

Debris? True

Object name: FENGYUN 1C DEB

International designator: 1999-025DEL

Object number (NORAD): 33651

Object ID (CCSDS): 33651

Country: PEOPLES REPUBLIC OF CHINA (PRC)

Current information (Y/N): Y

RCS size: SMALL

Orbital parameters

Period: 101.396 minutes

Inclination: 98.6832 deg

SMA: 7202.92 km

Apoapsis: 908.836 km

Periapsis: 740.734 km

RAAN: 172.7865 deg

Eccentricy: 0.011669

Argument of periapsis: 340.2057 deg

Mean anomaly: 19.4611 deg

Mean motion: 14.20168534 rev/day

Mean motion (dot): 0.00000485 rev/day2

B* drag term: 0.00023159 1/REarth

Two-line elements (TLE)

Creation date: May 3, 2025, 2:26 a.m.

Reference frame: TEME

Reference center: EARTH

Epoch: May 2, 2025, 9:24 p.m. UTC

TLE line 0: 0 FENGYUN 1C DEB

TLE line 1: 1 33651U 99025DEL 25122.89180106 .00000485 00000-0 23159-3 0 9998

TLE line 2: 2 33651 98.6832 172.7865 0116690 340.2057 19.4611 14.20168534610942

Live tracking on map

Real-time ground track for satellite FENGYUN 1C DEB.

In-orbit conjunctions

A list of the most updated potential collisions computed for object FENGYUN 1C DEB.

Target Orbit TCA Probability of collision Miss distance Type
COSMOS 2251 DEB LEO 2024-12-04 03:37:17 0.0001884803 80.0 (m) DEBRIS
COSMOS 1275 DEB LEO 2024-11-15 18:06:07 0.0001222939 306.0 (m) DEBRIS

Associated space launch

Chinese polar orbiting meteorological satellite

FENGYUN 1C DEB was lifted into orbit during the mission ‘Long March 4B | Feng Yun 1C’, on board a Long March 4B space rocket.

The launch took place on May 10, 1999, 1:33 a.m. from Launch Complex 7.

For more information about the launch, click the button.

Launch to space Long March 4B | Feng Yun 1C
Long March 4B | Feng Yun 1C

Agency: N/A

Status: Launch Successful

Launch date: May 10, 1999, 1:33 a.m. UTC

Rocket: Long March 4B

Launch pad: Launch Complex 7

Location: Taiyuan Satellite Launch Center, People's Republic of China

...

Latest news about this satellite

There are no fresh news available about this satellite. Check back as we update our databases every day.


Newsletter sign-up

Weekly statistics, charts and insights to help you stay on top of the space industry.